Regional Weather Roundup
Issued by NWS

Home | Current Version | Previous Version | Graphics & Text | Print | Product List | Glossary On
Versions: 1 2 3 4 5 6 7 8 9 10 11 12 13 14 15 16 17 18 19 20 21 22 23 24 25 26 27 28 29 30 31 32 33 34 35 36 37 38 39 40 41 42 43 44 45 46 47 48 49 50
000
ASUS43 KIND 270709
RWRIN

WEATHER ROUNDUP FOR INDIANA
NATIONAL WEATHER SERVICE INDIANAPOLIS IN
200 AM EST TUE JAN 27 2015

NOTE: "FAIR" INDICATES FEW OR NO CLOUDS BELOW 12,000 FEET WITH NO
SIGNIFICANT WEATHER AND/OR OBSTRUCTIONS TO VISIBILITY.

* - STATION DOES NOT REPORT WEATHER SUCH AS PRECIPITATION OR FOG.

+ - STATION NOT QUALITY CONTROLLED BY THE NATIONAL WEATHER SERVICE.
    USE DATA WITH CAUTION...ESPECIALLY DEWPOINT AND RELATIVE
    HUMIDITY OBSERVATIONS.

INZ001>003-010>013-019-020-270800-
NORTHWEST INDIANA

CITY           SKY/WX    TMP DP  RH WIND       PRES   REMARKS
GARY /AIRPORT/ CLOUDY    26  20  78 SE3       29.94R
KNOX *+        CLOUDY    22  10  59 E5        29.93R WCI  16
LA PORTE +     CLOUDY    24  19  81 E3        29.93S
MICHIGAN CITY+ CLOUDY    23  14  68 CALM      29.94S
MONTICELLO +   CLOUDY    23  21  93 E5        29.91S WCI  17
RENSSELAER +   CLOUDY    27  27 100 E7        29.91S FOG     WCI  19
VALPARAISO     CLOUDY    22  19  89 E5        29.93R WCI  16

$$

LMZ046-743>745-270800-
SOUTHERN LAKE MICHIGAN

STATION/POSITION TIME  TEMP WIND        PRES
                       AIR  DIR/SP/G
                 (UTC) (F)  (DEG/KT/KT) (MB)
MICHIGAN CITY    0700   23  100/  6/  8   N/A

$$

INZ004-005-014>016-021>024-270800-
NORTH CENTRAL INDIANA

CITY           SKY/WX    TMP DP  RH WIND       PRES   REMARKS
GOSHEN         CLOUDY    21  14  74 E3        29.93S
LOGANSPORT +   CLOUDY    23  19  86 E6        29.92S WCI  16
PERU/GRISSOM   FLURRIES  22  18  84 E6        29.91S WCI  14
ROCHESTER +    CLOUDY    25  19  80 E5        29.93S WCI  19
SOUTH BEND     CLOUDY    24  14  65 E3        29.94S
WARSAW +       CLOUDY    21  16  79 E5        29.93S WCI  15

$$

INZ006>009-017-018-025>027-270800-
NORTHEAST INDIANA

CITY           SKY/WX    TMP DP  RH WIND       PRES   REMARKS
ANGOLA *+      MOCLDY    18  10  73 CALM      29.92S
AUBURN +       CLOUDY    19  14  79 CALM      29.95R
FORT WAYNE     CLOUDY    19  13  77 E6        29.94S WCI  11
HUNTINGTON +   CLOUDY    19  10  68 CALM      29.93R

$$

INZ028-029-035-036-043>045-051>053-270800-
WEST CENTRAL INDIANA

CITY           SKY/WX    TMP DP  RH WIND       PRES   REMARKS
CRAWFORDSVL +  CLOUDY    26  22  85 SE3       29.90S
GREENCASTLE +  CLOUDY    28  23  80 CALM      29.90S FOG
LAFAYETTE      CLOUDY    26  25  96 NE3       29.91S
TERRE HAUTE    LGT SNOW  28  26  92 SE5       29.91F FOG     WCI  23

$$

INZ030>032-037>040-046>048-054>057-064-065-270800-
CENTRAL INDIANA

CITY           SKY/WX    TMP DP  RH WIND       PRES   REMARKS
CP ATTERBURY + CLOUDY    28  27  93 CALM      29.92S
GREENWOOD *+   CLOUDY    27  19  74 CALM      29.90
INDIANAPOLIS   LGT SNOW  24  24 100 SW3       29.90F FOG
-EAGLE CREEK     N/A     26  24  92 CALM      29.90S
KOKOMO *+      CLOUDY    23  18  80 SE6       29.91F WCI  16
MARION +       CLOUDY    21  16  79 E3        29.92S
MT COMFORT *+  CLOUDY    25  16  68 SE5       29.91S WCI  19
SHELBYVILLE    CLOUDY    28  22  78 E5        29.90F WCI  23
ZIONSVILLE +   CLOUDY    26  20  80 SE5       29.90F WCI  20

$$

INZ033-034-041-042-049-050-058-059-270800-
EAST CENTRAL INDIANA

CITY           SKY/WX    TMP DP  RH WIND       PRES   REMARKS
MUNCIE         CLOUDY    21  14  74 E7        29.91F WCI  12

$$

INZ060-061-067>069-081>083-085>088-270800-
SOUTHWEST INDIANA

CITY           SKY/WX    TMP DP  RH WIND       PRES   REMARKS
EVANSVILLE     MIX PCPN  32  29  88 SE5       29.91S FOG     WCI  27
HUNTINGBURG *+ CLOUDY    28  27  93 SE5       29.91F WCI  23
WASHINGTON +   MIX PCPN  29  26  88 SE3       29.91S

$$

INZ062-063-066-070>080-084-089>092-270800-
SOUTH CENTRAL AND SOUTHEAST INDIANA

CITY           SKY/WX    TMP DP  RH WIND       PRES   REMARKS
BLOOMINGTON    CLOUDY    27  25  92 CALM      29.90S FOG

$$




USA.gov is the U.S. government's official web portal to all federal, state and local government web resources and services.